Location: Albuquerque Trailhead
(34.7934°N, 106.3736°W)
Time: 05:42:37
(UTC+00:00)

FALCON 9 DEB - Pass Details

Date: 20 June 2021
Orbit: 422 x 432 km, 53.0° (Epoch: 29 July)

Event Time Altitude Azimuth Distance (km) Brightness Sun altitude
Rises 10:55:37 0° 300° (WNW) 2,378 6.7 -10.5°
Reaches altitude 10° 10:58:01 10° 284° (WNW) 1,507 5.5 -10.1°
Maximum altitude 11:00:40 22° 233° (SW) 988 4.3 -9.7°
Drops below altitude 10° 11:03:19 10° 181° (S) 1,496 5.5 -9.2°
Sets 11:05:42 0° 165° (SSE) 2,355 6.6 -8.9°
